Hourly Weather Kyslychuvata

Today, 27 October, Tuesday

Time Temperature Precipitation Wind Pressure Humidity
00:00 +13°C° 0 mm 6 mps 757 mmHg 60%
01:00 +11°C° 0 mm 6 mps 757 mmHg 60%
02:00 +12°C° 0 mm 5 mps 757 mmHg 60%
03:00 +12°C° 0 mm 5 mps 757 mmHg 61%
04:00 +12°C° 0 mm 5 mps 757 mmHg 62%
05:00 +12°C° 0 mm 5 mps 757 mmHg 63%
06:00 +12°C° 0 mm 5 mps 757 mmHg 63%
07:00 +12°C° 0 mm 5 mps 757 mmHg 62%
08:00 +12°C° 0 mm 5 mps 757 mmHg 62%
09:00 +13°C° 0 mm 5 mps 757 mmHg 59%
10:00 +14°C° 0 mm 5 mps 758 mmHg 56%
11:00 +16°C° 0 mm 5 mps 758 mmHg 53%
12:00 +16°C° 0 mm 5 mps 758 mmHg 51%
13:00 +17°C° 0 mm 5 mps 757 mmHg 49%
14:00 +19°C° 0 mm 5 mps 757 mmHg 46%
15:00 +17°C° 0 mm 5 mps 757 mmHg 48%
16:00 +17°C° 0 mm 4 mps 757 mmHg 49%
17:00 +15°C° 0 mm 4 mps 757 mmHg 51%
18:00 +14°C° 0 mm 4 mps 757 mmHg 51%
19:00 +14°C° 0 mm 4 mps 757 mmHg 52%
20:00 +13°C° 0 mm 4 mps 758 mmHg 52%
21:00 +12°C° 0 mm 4 mps 757 mmHg 52%
22:00 +12°C° 0 mm 4 mps 757 mmHg 52%
23:00 +11°C° 0 mm 4 mps 757 mmHg 52%

Tomorrow, 28 October, Wednesday

Time Temperature Precipitation Wind Pressure Humidity
00:00 +11°C° 0 mm 4 mps 757 mmHg 53%
01:00 +10°C° 0 mm 4 mps 757 mmHg 54%
02:00 +10°C° 0 mm 4 mps 758 mmHg 55%
03:00 +10°C° 0 mm 4 mps 757 mmHg 57%
04:00 +8°C° 0 mm 4 mps 757 mmHg 59%
05:00 +8°C° 0 mm 5 mps 757 mmHg 60%
06:00 +8°C° 0 mm 5 mps 757 mmHg 61%
07:00 +9°C° 0 mm 5 mps 758 mmHg 62%
08:00 +9°C° 0 mm 5 mps 758 mmHg 62%
09:00 +12°C° 0 mm 5 mps 757 mmHg 61%
10:00 +13°C° 0 mm 5 mps 757 mmHg 59%
11:00 +14°C° 0 mm 4 mps 757 mmHg 58%
12:00 +15°C° 0 mm 4 mps 757 mmHg 56%
13:00 +17°C° 0 mm 4 mps 757 mmHg 54%
14:00 +17°C° 0 mm 4 mps 757 mmHg 52%
15:00 +17°C° 0 mm 4 mps 756 mmHg 55%
16:00 +16°C° 0 mm 3 mps 756 mmHg 58%
17:00 +14°C° 0 mm 3 mps 756 mmHg 62%
18:00 +13°C° 0 mm 3 mps 756 mmHg 64%
19:00 +13°C° 0 mm 3 mps 757 mmHg 67%
20:00 +12°C° 0 mm 3 mps 757 mmHg 70%
21:00 +12°C° 0 mm 3 mps 756 mmHg 73%
22:00 +11°C° 0 mm 3 mps 756 mmHg 75%
23:00 +11°C° 0 mm 3 mps 756 mmHg 77%

Day after tomorrow, 29 October, Thursday

Time Temperature Precipitation Wind Pressure Humidity
00:00 +10°C° 0 mm 3 mps 756 mmHg 79%
01:00 +10°C° 0 mm 3 mps 756 mmHg 81%
02:00 +10°C° 0 mm 3 mps 756 mmHg 83%
03:00 +9°C° 0 mm 3 mps 756 mmHg 84%
04:00 +9°C° 0 mm 3 mps 756 mmHg 84%
05:00 +9°C° 0 mm 3 mps 756 mmHg 85%
06:00 +9°C° 0 mm 3 mps 756 mmHg 81%
07:00 +10°C° 0 mm 3 mps 756 mmHg 77%
08:00 +10°C° 0 mm 4 mps 755 mmHg 73%
09:00 +12°C° 0 mm 3 mps 755 mmHg 68%
10:00 +13°C° 0 mm 3 mps 755 mmHg 63%
11:00 +16°C° 0 mm 3 mps 755 mmHg 57%
12:00 +17°C° 0 mm 3 mps 755 mmHg 55%
13:00 +17°C° 0 mm 3 mps 754 mmHg 53%
14:00 +18°C° 0 mm 2 mps 754 mmHg 51%
15:00 +17°C° 0.2 mm 2 mps 754 mmHg 56%
16:00 +16°C° 0.2 mm 2 mps 754 mmHg 60%
17:00 +15°C° 0.2 mm 2 mps 754 mmHg 65%
18:00 +15°C° 0.1 mm 2 mps 754 mmHg 66%
19:00 +13°C° 0.1 mm 3 mps 754 mmHg 68%
20:00 +13°C° 0.1 mm 3 mps 754 mmHg 70%
21:00 +12°C° 0 mm 3 mps 754 mmHg 70%
22:00 +13°C° 0 mm 2 mps 753 mmHg 71%
23:00 +13°C° 0 mm 2 mps 753 mmHg 72%

30 October, Friday

Time Temperature Precipitation Wind Pressure Humidity
00:00 +12°C° 0 mm 2 mps 753 mmHg 72%
01:00 +11°C° 0 mm 3 mps 753 mmHg 73%
02:00 +11°C° 0 mm 3 mps 753 mmHg 73%
03:00 +11°C° 0 mm 3 mps 753 mmHg 73%
04:00 +11°C° 0 mm 3 mps 753 mmHg 73%
05:00 +10°C° 0 mm 3 mps 753 mmHg 73%
06:00 +11°C° 0 mm 3 mps 753 mmHg 71%
07:00 +11°C° 0 mm 4 mps 753 mmHg 69%
08:00 +11°C° 0 mm 4 mps 753 mmHg 68%
09:00 +12°C° 0 mm 4 mps 753 mmHg 64%
10:00 +13°C° 0 mm 3 mps 753 mmHg 61%
11:00 +14°C° 0 mm 3 mps 754 mmHg 57%
12:00 +14°C° 0 mm 4 mps 754 mmHg 60%
13:00 +13°C° 0 mm 4 mps 754 mmHg 62%
14:00 +13°C° 0 mm 4 mps 753 mmHg 64%
15:00 +13°C° 0 mm 4 mps 754 mmHg 67%
16:00 +12°C° 0 mm 3 mps 754 mmHg 69%
17:00 +12°C° 0 mm 3 mps 754 mmHg 72%
18:00 +13°C° 0 mm 2 mps 754 mmHg 73%
19:00 +12°C° 0 mm 2 mps 754 mmHg 73%
20:00 +12°C° 0 mm 2 mps 755 mmHg 74%
21:00 +12°C° 0 mm 2 mps 755 mmHg 74%
22:00 +12°C° 0 mm 2 mps 755 mmHg 74%
23:00 +10°C° 0 mm 2 mps 755 mmHg 75%

31 October, Saturday

Time Temperature Precipitation Wind Pressure Humidity
00:00 +10°C° 0 mm 2 mps 755 mmHg 76%
01:00 +10°C° 0 mm 2 mps 755 mmHg 76%
02:00 +9°C° 0 mm 2 mps 755 mmHg 77%
03:00 +9°C° 0 mm 2 mps 755 mmHg 78%
04:00 +9°C° 0 mm 2 mps 755 mmHg 79%
05:00 +8°C° 0 mm 2 mps 755 mmHg 80%
06:00 +9°C° 0 mm 3 mps 755 mmHg 78%
07:00 +9°C° 0 mm 3 mps 756 mmHg 77%
08:00 +9°C° 0 mm 3 mps 756 mmHg 75%
09:00 +10°C° 0 mm 3 mps 756 mmHg 70%
10:00 +12°C° 0 mm 3 mps 756 mmHg 65%
11:00 +13°C° 0 mm 3 mps 756 mmHg 60%
12:00 +13°C° 0 mm 3 mps 756 mmHg 58%
13:00 +14°C° 0 mm 3 mps 756 mmHg 55%
14:00 +16°C° 0 mm 3 mps 755 mmHg 53%
15:00 +14°C° 0 mm 3 mps 756 mmHg 57%
16:00 +13°C° 0 mm 3 mps 756 mmHg 61%
17:00 +12°C° 0 mm 3 mps 756 mmHg 65%
18:00 +12°C° 0 mm 4 mps 756 mmHg 67%
19:00 +12°C° 0 mm 4 mps 756 mmHg 69%
20:00 +12°C° 0 mm 4 mps 756 mmHg 71%
21:00 +12°C° 0.1 mm 4 mps 756 mmHg 75%
22:00 +12°C° 0.1 mm 5 mps 756 mmHg 79%
23:00 +12°C° 0.1 mm 5 mps 756 mmHg 82%

1 November, Sunday

Time Temperature Precipitation Wind Pressure Humidity
00:00 +12°C° 0.2 mm 5 mps 756 mmHg 84%
01:00 +12°C° 0.2 mm 5 mps 756 mmHg 86%
02:00 +12°C° 0.2 mm 5 mps 755 mmHg 87%
03:00 +11°C° 0.2 mm 6 mps 755 mmHg 86%
04:00 +11°C° 0.2 mm 7 mps 755 mmHg 86%
05:00 +11°C° 0.2 mm 7 mps 755 mmHg 85%
06:00 +11°C° 0.1 mm 7 mps 755 mmHg 83%
07:00 +12°C° 0.1 mm 7 mps 755 mmHg 81%
08:00 +12°C° 0.1 mm 7 mps 755 mmHg 79%
09:00 +14°C° 0.3 mm 7 mps 755 mmHg 74%
10:00 +15°C° 0.3 mm 7 mps 755 mmHg 68%
11:00 +17°C° 0.3 mm 7 mps 755 mmHg 63%
12:00 +17°C° 0 mm 7 mps 755 mmHg 60%
13:00 +18°C° 0 mm 7 mps 755 mmHg 58%
14:00 +18°C° 0 mm 7 mps 754 mmHg 55%
15:00 +17°C° 0 mm 6 mps 755 mmHg 60%
16:00 +17°C° 0 mm 5 mps 755 mmHg 65%
17:00 +17°C° 0 mm 4 mps 755 mmHg 70%
18:00 +15°C° 0 mm 4 mps 755 mmHg 74%
19:00 +15°C° 0 mm 4 mps 755 mmHg 78%
20:00 +14°C° 0 mm 3 mps 755 mmHg 82%
21:00 +14°C° 0 mm 3 mps 755 mmHg 83%
22:00 +14°C° 0 mm 4 mps 755 mmHg 84%
23:00 +13°C° 0 mm 4 mps 755 mmHg 84%
Show more

We Need Your Consent

Meteoprog and our Service Providers may store and access personal data such as cookies, device identifiers or other similar technologies on your device and process such data to personalise content and ads, as well as provide social media features and to analyse the traffic.

  • Store and/or access information on your device

    Cookies, device identifiers or other information can be stored or accessed on your device for the purposes indicated above.

  • Personalised ads and content, ad and content measurement, audience insights, and products development

    Ads and content can be personalised based on a profile. More data can be added to better personalise ads and content. Ad and content performance can be measured. Insights about the audience who saw the ads and content can be derived. Such data can be used to develop or improve user’s experience, systems and software.

By clicking ‘I Agree’ you will allow the use of indicated cookies, device identifiers, web beacons or other similar technologies. Your settings can be changed in the browser on your device.

For certain purposes, legitimate interests may be relied on, rather than consent. You can read more about this in our Privacy and Cookie Policy.